Terminal Aerodrome Forecast
Issued by NWS

Home | Current Version | Previous Version | Text Only | Print | Product List | Glossary On
Versions: 1 2 3 4 5 6 7 8 9 10 11 12 13 14 15 16 17 18 19 20 21 22 23 24 25 26 27 28
000
FTUS45 KLKN 051120
TAFTPH
TAF
KTPH 051120Z 0512/0612 VRB06KT P6SM BKN200
     FM051800 18020G30KT P6SM SCT100 BKN150
     FM052100 18026G45KT P6SM SCT080 BKN130
     FM060300 17012KT P6SM SCT070 BKN120=

USA.gov is the U.S. government's official web portal to all federal, state and local government web resources and services.